Location: Bay Harbour
(38.2612°N, 75.2555°W)
Time: 02:30:04
(UTC+00:00)

Cosmos 2360 - Pass Details

Date: 29 October 2020
Orbit: 848 x 854 km, 70.8° (Epoch: 02 December)

Event Time Altitude Azimuth Distance (km) Brightness Sun altitude
Rises 22:55:35 0° 184° (S) 3,407 7.5 -10.6°
Reaches altitude 10° 22:58:06 10° 179° (S) 2,475 6.7 -11.1°
Maximum altitude 23:03:31 47° 107° (ESE) 1,120 4.5 -12.2°
Drops below altitude 10° 23:08:57 10° 35° (NE) 2,488 6.3 -13.2°
Enters shadow 23:10:45 - 31° (NNE) 3,147 6.8 -13.6°
